Theta_e
314 315 313 315 316 316 315 313 313 312 312 312 312 310 308 310 313 315 320 320 319 319 318 323 324 325 324 324 328 322 329 333 333 332 332 327 327 322 323 327 326 326 327 329 336
313 313 313 313 313 315 316 315 313 314 312 312 311 311 309 308 313 316 312 315 319 320 323 324 323 326 321 324 329 326 328 330 328 327 330 328 326 324 325 325 327 328 332 332 335
312 313 313 314 314 312 312 316 315 313 313 313 312 311 311 311 313 310 302 303 310 319 321 324 325 327 325 324 330 328 329 327 329 327 326 328 325 326 323 325 324 326 328 331 333
311 312 312 313 312 310 310 311 316 314 313 313 312 311 311 312 299 318 319 310 306 321 322 322 324 327 325 324 325 332 329 328 329 326 327 328 328 329 326 324 321 322 324 331 330
309 310 312 313 312 310 310 310 314 315 313 313 312 311 311 312 312 314 317 322 313 321 322 319 325 326 325 323 323 328 328 328 327 325 326 326 328 327 327 324 324 324 327 331 331
307 308 309 312 312 311 310 310 311 316 314 313 312 311 311 311 308 306 308 321 311 320 321 320 322 323 326 323 323 321 325 326 323 326 325 328 327 327 327 324 324 324 325 330 331
306 307 307 310 311 312 310 310 311 313 315 313 312 312 312 309 307 306 311 322 316 320 320 321 322 323 323 327 322 322 324 322 321 322 323 325 327 327 324 324 325 324 323 322 328
304 305 306 309 310 311 310 309 311 311 315 313 312 313 312 310 310 307 310 320 322 320 321 320 321 320 322 321 322 324 323 326 322 321 321 322 324 319 320 324 325 322 320 318 318
303 304 304 306 308 309 310 310 310 311 315 314 313 312 314 310 310 309 307 313 322 321 321 320 320 321 322 322 325 322 323 324 323 320 321 321 322 319 317 319 320 318 316 316 316
303 303 305 303 305 307 309 309 309 311 314 314 312 313 311 311 310 310 307 310 321 320 321 321 321 321 321 325 318 322 323 321 322 320 320 321 321 318 316 316 316 316 316 314 314
302 303 304 305 304 306 308 309 309 311 314 315 314 313 311 309 310 309 308 308 314 319 321 320 321 322 321 323 317 318 320 321 319 319 320 320 320 319 316 314 314 315 314 314 316
301 302 304 304 306 305 308 309 308 311 314 314 312 312 309 309 308 307 308 311 316 319 318 321 321 316 315 320 322 320 319 319 318 317 318 316 317 316 315 314 314 314 313 313 314
301 302 302 304 305 306 307 309 307 310 313 312 312 312 311 308 308 308 308 312 316 317 318 315 314 315 316 318 323 323 323 318 319 318 317 318 320 318 315 313 313 313 313 314 313
301 302 301 303 304 306 306 308 307 309 312 311 314 313 311 310 310 307 308 312 316 316 316 316 314 316 317 318 319 321 320 317 319 320 319 318 318 316 316 316 315 314 313 313 313
301 302 302 302 303 303 307 307 307 308 312 311 313 311 311 310 308 308 308 313 315 314 315 316 315 316 319 318 318 317 318 320 318 319 320 319 321 318 316 317 315 313 312 312 311
301 301 303 302 301 304 305 306 307 310 311 312 312 314 313 309 309 307 308 311 311 314 313 312 312 314 316 316 318 316 318 318 317 319 321 317 319 317 317 315 315 314 313 312 310
301 301 302 300 303 302 305 307 309 311 307 310 311 312 313 310 311 310 309 313 314 314 315 313 314 313 315 317 317 319 321 323 325 322 322 315 321 319 313 312 313 313 313 312 311
301 301 301 300 299 303 306 307 309 308 308 306 311 312 313 312 312 310 310 312 311 308 309 312 313 313 312 317 318 320 319 319 316 319 318 315 322 319 315 314 313 312 311 311 310
300 299 300 299 299 301 304 309 308 306 307 310 312 313 313 313 312 311 310 311 311 308 308 311 311 311 312 313 316 318 322 315 315 307 313 315 316 315 314 313 314 313 310 309 309
299 299 299 299 298 297 300 306 304 306 306 309 311 313 312 313 313 311 311 309 309 309 306 308 311 309 312 315 313 316 314 320 319 320 318 316 317 316 314 314 311 309 309 309 308
298 297 297 299 299 298 301 300 300 301 302 308 310 312 311 313 311 311 310 307 308 309 307 306 307 309 309 314 316 317 317 316 314 316 314 313 315 310 312 312 309 307 309 307 306
296 298 297 300 300 300 300 298 302 303 304 303 308 310 311 312 311 311 309 308 307 308 310 307 306 310 311 308 312 314 315 314 316 315 314 314 313 310 310 310 307 307 307 308 307
297 297 299 299 298 299 296 300 301 303 303 307 308 309 308 312 312 310 307 306 306 308 310 309 307 304 310 311 311 314 314 313 313 309 315 317 314 307 306 305 304 305 304 304 304
296 297 296 299 293 297 294 296 299 302 302 302 303 307 309 311 308 311 308 307 307 308 311 310 306 310 309 309 311 314 314 314 315 316 314 315 313 310 308 305 304 304 305 306 301
296 298 291 298 298 296 295 297 300 302 301 301 306 309 309 311 308 308 308 308 308 308 310 310 311 304 305 306 310 311 312 313 316 315 314 313 313 310 308 306 306 306 306 298 298
297 297 297 296 298 295 298 299 300 301 303 304 304 308 308 309 309 308 306 308 309 307 309 309 311 306 304 306 305 304 311 312 313 315 314 311 310 308 306 305 297 295 296 295 293
294 296 297 300 298 298 298 299 301 302 303 302 303 307 309 308 306 306 306 307 307 308 309 310 308 310 312 306 306 303 305 308 310 308 313 314 313 306 302 297 293 291 290 290 289
Wind_Speed
25 26 25 23 25 24 22 20 18 16 14 11 12 12 13 13 14 14 10 10 5 6 11 8 7 11 6 4 4 2 4 2 5 6 3 2 2 1 1 4 1 2 3 3 16
26 27 27 26 25 23 25 23 21 19 16 13 11 10 10 9 10 17 23 17 15 10 5 5 3 7 4 3 3 3 3 8 4 3 3 1 2 4 3 1 1 1 2 3 25
25 28 30 27 26 27 25 25 24 21 19 15 11 8 6 3 4 9 19 27 24 17 9 1 2 2 1 1 2 2 4 3 2 3 2 2 1 1 6 4 5 5 3 8 14
26 27 29 31 29 28 26 25 26 23 21 17 14 10 6 6 8 2 4 8 25 17 10 4 2 5 4 5 3 2 5 3 1 1 0 2 1 2 3 5 6 4 3 12 11
26 27 28 32 31 29 26 26 25 26 23 20 17 13 8 4 7 2 6 8 13 19 16 6 4 5 6 5 3 4 3 4 4 2 3 1 4 5 6 8 4 4 5 9 12
26 28 27 30 32 31 28 25 26 26 25 22 20 18 6 10 10 20 15 5 15 22 14 9 5 4 3 4 7 2 4 4 2 3 3 4 4 5 6 7 8 5 7 9 10
28 23 29 29 30 31 30 27 26 24 26 24 23 19 10 12 10 6 8 6 16 26 9 12 5 3 2 2 2 2 5 6 3 3 6 5 7 11 6 4 8 9 8 8 12
28 26 24 23 29 29 28 29 27 25 27 25 23 21 8 11 31 17 6 7 15 20 21 19 9 2 1 3 4 4 3 3 3 8 4 9 19 7 7 7 11 11 9 8 9
27 27 29 28 26 28 27 27 26 26 26 26 18 12 6 16 12 25 24 5 13 12 12 9 7 4 2 4 1 4 3 9 7 9 5 8 8 4 6 5 9 8 9 9 8
28 29 26 29 29 28 26 24 23 23 24 26 14 6 6 7 9 8 23 16 5 8 4 4 4 4 5 8 10 6 5 6 7 3 7 7 12 9 7 6 9 9 9 9 9
28 27 27 27 31 28 27 18 5 5 21 9 9 2 3 16 16 14 21 11 4 6 9 8 12 21 21 15 8 6 5 9 3 4 1 7 14 15 11 7 10 13 9 10 13
30 30 29 27 29 31 29 14 19 3 12 23 8 20 6 14 4 5 27 9 8 14 8 8 24 8 8 7 6 5 6 8 3 4 3 8 17 17 14 11 13 13 10 10 8
31 30 30 28 28 29 31 33 29 14 3 21 14 20 16 11 7 17 23 9 18 18 19 14 6 15 14 11 15 15 19 4 3 1 3 5 15 14 9 6 7 7 9 7 11
29 29 27 26 19 30 29 37 34 20 8 6 17 8 20 7 5 10 18 15 10 26 22 14 9 13 12 17 16 19 8 7 6 4 6 4 9 5 4 7 6 7 8 9 11
28 27 29 27 8 24 29 36 35 11 14 11 10 14 19 16 12 9 24 6 15 9 11 11 9 9 15 17 13 11 10 13 6 5 3 10 4 5 1 6 7 7 9 10 10
27 28 27 23 22 16 28 38 29 10 15 10 11 13 19 15 6 6 11 4 3 4 8 6 1 8 9 7 16 7 5 4 5 6 13 27 9 13 10 6 6 7 8 7 6
24 25 28 17 7 27 33 22 12 15 9 9 9 18 25 10 14 14 20 20 14 8 11 5 14 3 4 6 5 10 10 5 8 10 17 7 9 21 7 7 7 9 8 2 5
22 21 23 18 22 23 26 13 16 17 9 2 11 25 30 22 11 17 24 21 16 9 7 13 7 18 5 9 8 22 18 6 6 5 7 5 10 11 9 10 9 8 6 5 5
16 17 16 21 16 16 8 15 13 5 9 10 12 21 18 18 9 16 21 27 27 21 11 14 14 5 6 5 14 12 16 10 4 1 2 4 6 9 9 9 4 3 6 6 5
13 10 8 23 24 6 4 16 2 2 8 8 16 13 17 23 19 18 20 24 19 25 5 6 5 6 14 2 7 11 7 12 7 6 5 4 3 7 3 4 6 7 8 6 4
8 2 6 23 24 4 2 5 3 7 4 14 17 15 15 12 14 19 26 14 24 27 9 6 4 2 10 12 16 9 9 4 2 5 5 2 6 7 8 8 10 8 8 7 6
3 3 7 27 6 1 3 5 2 2 4 10 20 4 19 24 19 21 19 17 26 24 22 8 5 3 14 3 8 16 19 18 7 9 4 2 5 2 5 7 8 8 7 4 2
3 1 12 13 5 6 2 2 3 5 9 5 8 10 6 19 13 15 10 14 23 23 23 12 4 3 3 3 2 9 8 16 4 3 6 8 7 4 9 7 7 9 5 2 0
3 4 2 3 2 8 6 6 6 6 6 5 9 8 9 18 4 15 6 13 20 19 19 17 4 16 14 8 7 13 15 12 16 11 11 12 16 3 4 7 6 5 4 2 8
3 3 4 5 10 11 7 9 14 7 4 4 7 17 10 7 5 7 5 5 12 20 17 14 18 3 1 1 5 11 19 18 15 23 13 22 14 9 8 7 8 6 4 12 12
4 3 2 3 10 14 15 16 15 11 5 6 15 18 21 17 11 11 9 12 12 15 20 8 8 6 1 2 5 1 12 16 22 20 15 7 7 5 4 5 9 9 9 11 10
8 3 3 6 8 15 15 18 16 11 7 10 12 20 16 16 15 19 13 16 11 17 22 15 7 9 16 3 5 6 12 10 7 5 12 17 10 6 5 7 6 8 10 10 10
Wind_Direction
260 258 255 248 244 243 244 245 246 245 249 253 266 267 264 269 278 282 254 232 244 263 268 284 326 358 345 338 9 109 71 195 218 164 213 301 99 22 95 115 62 98 145 286 170
260 257 254 253 250 248 244 243 240 240 241 243 251 271 274 266 288 265 248 249 248 246 286 232 267 355 356 328 347 89 136 207 225 191 187 324 173 157 114 92 252 18 61 111 165
261 255 249 245 251 250 249 246 242 235 235 234 235 251 269 249 315 253 269 247 238 234 236 208 156 150 213 35 227 155 204 215 236 201 178 233 174 266 153 210 201 174 189 151 165
264 258 249 241 247 253 248 246 240 236 230 229 224 224 232 170 224 22 344 248 222 215 213 207 147 153 181 200 204 200 228 194 267 207 143 203 314 221 213 231 163 216 245 168 172
266 264 255 243 245 245 247 243 242 235 231 224 219 213 178 226 247 224 351 297 205 206 205 173 174 164 182 191 186 217 221 193 218 205 285 108 237 257 245 248 240 250 175 196 194
267 264 258 248 242 243 242 240 235 234 229 222 215 209 191 228 250 249 270 298 188 190 197 179 202 208 208 204 171 226 219 237 253 228 246 217 255 163 264 246 262 180 210 215 210
262 264 258 251 243 239 241 238 234 233 226 221 216 207 226 220 238 293 246 243 194 189 162 197 212 206 150 335 258 229 301 310 198 215 229 169 274 239 200 199 249 267 255 238 227
258 256 253 251 245 238 238 236 232 228 223 217 215 203 235 228 245 247 235 237 204 198 206 214 200 16 193 312 14 176 167 242 218 169 237 148 257 263 241 206 247 259 261 249 247
254 251 251 251 245 240 238 236 232 226 222 211 199 194 240 206 213 226 228 228 191 192 202 199 150 190 168 117 13 237 187 231 293 204 184 189 267 244 259 205 246 265 273 266 274
250 247 247 245 246 238 234 231 232 226 218 204 187 176 218 192 154 221 206 217 171 134 99 147 169 190 189 182 211 203 178 221 210 234 194 234 257 271 272 295 265 258 267 276 271
247 247 242 238 238 237 226 218 181 222 211 203 180 171 87 161 170 182 189 173 207 148 179 180 190 211 201 206 196 173 192 211 205 231 255 238 258 264 269 256 261 266 251 250 261
245 243 238 232 232 226 215 210 206 144 208 221 172 201 92 160 129 183 174 164 186 199 132 183 220 188 175 181 200 190 212 221 287 241 227 280 269 271 265 255 245 250 256 240 251
242 237 233 228 230 223 216 216 213 222 241 206 209 188 189 180 186 197 173 167 192 197 196 202 226 165 178 188 205 221 223 147 188 155 258 341 285 257 252 241 235 239 239 257 236
238 234 225 228 235 218 216 214 206 225 226 208 194 215 186 164 221 174 197 163 178 205 196 225 228 197 188 207 195 221 176 162 183 148 243 144 276 240 241 260 237 245 242 247 255
233 232 220 208 227 204 216 189 194 168 227 183 177 158 168 171 135 218 178 164 184 178 183 207 163 176 196 209 173 225 167 199 186 218 7 258 256 290 274 266 272 263 250 250 258
230 226 215 211 225 211 193 181 177 214 215 170 160 164 168 178 190 127 164 115 128 180 223 206 310 172 200 180 184 135 88 110 147 183 236 240 207 262 235 225 237 232 247 266 322
226 225 211 198 240 196 185 166 196 218 160 157 167 172 181 166 174 154 171 190 185 174 210 211 240 277 170 140 150 190 163 196 209 215 234 166 197 247 242 240 218 224 252 42 33
216 214 207 211 215 181 184 190 216 193 184 227 166 178 187 170 178 171 168 190 205 195 183 197 220 211 191 202 187 202 205 186 203 208 223 153 208 241 228 249 250 253 219 145 125
204 206 190 209 193 194 217 210 199 130 147 150 172 178 188 183 136 170 177 190 194 192 180 191 224 184 174 146 172 194 219 197 127 77 83 201 281 308 246 253 233 230 139 131 104
183 181 211 204 199 158 231 208 326 226 165 192 192 186 177 178 170 174 179 194 192 199 179 203 196 210 186 116 217 182 147 210 220 183 210 247 258 228 254 231 130 112 116 110 98
155 127 227 188 182 214 197 200 179 231 123 213 206 194 202 177 179 185 183 184 192 188 167 155 133 245 151 203 196 190 212 211 183 155 190 210 251 220 205 173 159 150 146 142 119
110 201 201 166 198 128 133 167 239 293 126 241 204 182 181 184 193 190 195 198 188 173 188 182 142 161 205 272 183 209 211 208 209 213 225 138 264 324 215 152 135 147 151 150 103
159 157 173 173 198 193 176 166 205 191 248 210 214 165 242 177 185 190 194 189 181 173 177 173 192 91 29 357 275 204 208 209 172 83 197 212 247 32 119 130 151 146 162 194 229
149 180 249 202 188 181 149 200 202 193 231 270 314 144 185 175 82 182 142 176 179 185 186 167 150 201 207 220 144 206 205 199 204 216 217 211 235 99 120 132 157 168 187 186 54
170 226 199 179 201 207 180 185 198 197 212 164 273 212 159 154 118 158 128 109 176 195 188 184 211 146 240 110 198 203 212 206 203 219 203 228 227 193 189 170 193 217 44 65 53
161 174 251 140 173 194 209 219 197 197 156 204 232 247 178 184 193 177 136 166 169 193 190 161 211 161 193 71 79 108 208 205 212 224 230 267 253 179 173 155 71 65 74 69 56
197 197 135 185 176 187 200 218 210 178 203 244 217 223 179 187 181 176 166 169 162 175 186 183 159 177 220 139 79 291 210 196 196 187 206 231 233 165 116 100 62 61 60 55 37